FW9098 Weather Reports


Display with metric or nautical units.
time (UTC)temp
F
wind
direction
speed
MPH
gust
MPH
rain 1hr
in
rain 24hr
in
rain mn
in
humidity
%
barometer
mb
20260503021036 47 66 0.0 3.0 0.00 0.00 0.00 76 1018.1
20260503020535 47 315 2.0 3.0 0.00 0.00 0.00 76 1017.9
20260503020048 48 313 1.0 3.0 0.00 0.00 0.00 76 1017.8
20260503015537 48 0 0.0 0.0 0.00 0.00 0.00 75 1017.9
20260503015034 48 0 0.0 0.0 0.00 0.00 0.00 75 1017.8
20260503014558 48 0 0.0 0.0 0.00 0.00 0.00 75 1017.8
20260503014035 48 0 0.0 0.0 0.00 0.00 0.00 75 1017.9
20260503013536 48 0 0.0 0.0 0.00 0.00 0.00 75 1017.9
20260503013051 48 0 0.0 0.0 0.00 0.00 0.00 75 1017.9
20260503012536 48 0 0.0 0.0 0.00 0.00 0.00 74 1017.9
20260503012035 48 0 0.0 0.0 0.00 0.00 0.00 74 1018.0
20260503011552 48 0 0.0 0.0 0.00 0.00 0.00 74 1017.9
20260503011035 48 0 0.0 0.0 0.00 0.00 0.00 74 1017.9
20260503010538 49 0 0.0 0.0 0.00 0.00 0.00 74 1018.0
20260503010052 49 0 0.0 0.0 0.00 0.00 0.00 74 1018.0
20260503005535 49 0 0.0 0.0 0.00 0.00 0.00 74 1017.9
20260503005036 49 0 0.0 0.0 0.00 0.00 0.00 73 1018.0
20260503004551 49 0 0.0 0.0 0.00 0.00 0.00 73 1018.0
20260503004036 49 0 0.0 0.0 0.00 0.00 0.00 73 1017.9
20260503003534 49 0 0.0 0.0 0.00 0.00 0.00 73 1017.9
20260503003047 49 0 0.0 0.0 0.00 0.00 0.00 73 1018.0
20260503002534 50 0 0.0 0.0 0.00 0.00 0.00 72 1018.1
20260503002034 50 0 0.0 0.0 0.00 0.00 0.00 72 1018.1
20260503001550 50 0 0.0 0.0 0.00 0.00 0.00 72 1018.1
20260503001037 50 0 0.0 0.0 0.00 0.00 0.00 72 1018.2
20260503000534 50 0 0.0 2.0 0.00 0.00 0.00 72 1018.3
20260503000051 50 0 0.0 3.0 0.00 0.00 0.00 71 1018.2
20260502235535 50 321 1.0 3.0 0.00 0.00 0.00 71 1018.2
20260502235035 51 321 2.0 3.0 0.00 0.00 0.00 70 1018.3
20260502234555 51 0 0.0 0.0 0.00 0.00 0.00 70 1018.3
20260502234035 51 0 0.0 2.0 0.00 0.00 0.00 70 1018.5
20260502233539 51 0 0.0 2.0 0.00 0.00 0.00 69 1018.4
20260502233048 51 312 1.0 2.0 0.00 0.00 0.00 69 1018.5
20260502232538 51 311 1.0 2.0 0.00 0.00 0.00 69 1018.5
20260502232035 52 309 1.0 2.0 0.00 0.00 0.00 68 1018.7
20260502231545 52 309 1.0 2.0 0.00 0.00 0.00 68 1018.7
20260502231035 52 309 0.0 2.0 0.00 0.00 0.00 67 1018.8
20260502230535 52 0 0.0 1.0 0.00 0.00 0.00 67 1018.8
20260502230048 52 0 0.0 2.0 0.00 0.00 0.00 66 1018.8
20260502225534 53 309 0.0 2.0 0.00 0.00 0.00 66 1018.8
20260502225034 52 0 0.0 1.0 0.00 0.00 0.00 66 1018.8
20260502224548 53 0 0.0 1.0 0.00 0.00 0.00 66 1018.9
20260502224037 53 0 0.0 1.0 0.00 0.00 0.00 66 1018.8
20260502223535 53 0 0.0 1.0 0.00 0.00 0.00 66 1018.8
20260502223046 53 0 0.0 1.0 0.00 0.00 0.00 66 1018.9
20260502222536 53 0 0.0 2.0 0.00 0.00 0.00 65 1018.9
20260502222035 53 0 0.0 2.0 0.00 0.00 0.00 65 1018.9
20260502221552 54 309 1.0 2.0 0.00 0.00 0.00 65 1019.0
20260502221035 54 309 0.0 2.0 0.00 0.00 0.00 64 1019.0
20260502220535 54 0 0.0 2.0 0.00 0.00 0.00 64 1019.0
20260502220052 54 309 1.0 2.0 0.00 0.00 0.00 64 1019.0
20260502215534 54 309 1.0 3.0 0.00 0.00 0.00 63 1019.1
20260502215037 54 309 1.0 3.0 0.00 0.00 0.00 63 1019.0
20260502214555 54 309 1.0 3.0 0.00 0.00 0.00 63 1019.0
20260502214037 55 306 1.0 2.0 0.00 0.00 0.00 62 1018.9
20260502213534 55 0 0.0 2.0 0.00 0.00 0.00 62 1019.0
20260502213047 55 0 1.0 2.0 0.00 0.00 0.00 62 1019.0
20260502212535 55 305 0.0 2.0 0.00 0.00 0.00 62 1019.1
20260502212036 55 305 1.0 3.0 0.00 0.00 0.00 61 1019.1
20260502211546 56 0 1.0 3.0 0.00 0.00 0.00 61 1019.1
20260502211039 56 302 1.0 3.0 0.00 0.00 0.00 60 1019.1
20260502210534 56 296 1.0 2.0 0.00 0.00 0.00 59 1019.1
20260502210106 56 302 1.0 3.0 0.00 0.00 0.00 59 1019.1
20260502205535 56 302 1.0 3.0 0.00 0.00 0.00 59 1019.2
20260502205037 57 309 1.0 4.0 0.00 0.00 0.00 58 1019.3
20260502204556 57 305 2.0 4.0 0.00 0.00 0.00 57 1019.3
20260502204035 57 302 1.0 2.0 0.00 0.00 0.00 57 1019.4
20260502203535 58 309 0.0 2.0 0.00 0.00 0.00 57 1019.4
20260502203053 58 309 1.0 2.0 0.00 0.00 0.00 56 1019.4
20260502202535 58 310 1.0 2.0 0.00 0.00 0.00 56 1019.4
20260502202035 58 0 0.0 2.0 0.00 0.00 0.00 55 1019.4
20260502201548 58 309 0.0 4.0 0.00 0.00 0.00 55 1019.4
20260502201036 59 309 1.0 4.0 0.00 0.00 0.00 54 1019.5
20260502200536 59 316 2.0 4.0 0.00 0.00 0.00 53 1019.5
20260502200051 60 302 1.0 3.0 0.00 0.00 0.00 52 1019.4
20260502195535 60 309 1.0 2.0 0.00 0.00 0.00 52 1019.4
20260502195035 60 309 1.0 3.0 0.00 0.00 0.00 51 1019.5
20260502194551 61 309 1.0 3.0 0.00 0.00 0.00 51 1019.5
20260502194035 61 317 1.0 3.0 0.00 0.00 0.00 49 1019.5
20260502193536 61 315 1.0 3.0 0.00 0.00 0.00 48 1019.6
20260502193046 62 315 1.0 3.0 0.00 0.00 0.00 48 1019.6
20260502192535 62 317 0.0 3.0 0.00 0.00 0.00 47 1019.5
20260502192034 62 0 1.0 3.0 0.00 0.00 0.00 47 1019.6
20260502191600 63 333 2.0 4.0 0.00 0.00 0.00 46 1019.6
20260502191035 63 306 2.0 4.0 0.00 0.00 0.00 45 1019.6
20260502190535 64 323 2.0 3.0 0.00 0.00 0.00 42 1019.6
20260502190052 65 101 1.0 2.0 0.00 0.00 0.00 41 1019.5
20260502185536 65 101 0.0 2.0 0.00 0.00 0.00 40 1019.4
20260502185034 66 0 0.0 0.0 0.00 0.00 0.00 39 1019.4
20260502184551 67 0 0.0 0.0 0.00 0.00 0.00 37 1019.4
20260502184035 67 0 0.0 0.0 0.00 0.00 0.00 36 1019.3
20260502183537 67 0 0.0 0.0 0.00 0.00 0.00 36 1019.2
20260502183047 68 0 0.0 1.0 0.00 0.00 0.00 36 1019.2
20260502182537 68 0 0.0 2.0 0.00 0.00 0.00 35 1019.1
20260502182035 69 0 0.0 2.0 0.00 0.00 0.00 34 1019.1
20260502181552 69 105 0.0 2.0 0.00 0.00 0.00 33 1019.0
20260502181035 70 102 1.0 4.0 0.00 0.00 0.00 33 1018.9
20260502180535 70 103 0.0 4.0 0.00 0.00 0.00 32 1018.8
20260502164034 76 112 1.0 4.0 0.00 0.00 0.00 27 1019.2
20260502163535 76 0 1.0 4.0 0.00 0.00 0.00 28 1019.2
20260502163054 75 350 1.0 8.0 0.00 0.00 0.00 28 1019.2
20260502162536 75 117 2.0 8.0 0.00 0.00 0.00 28 1019.3
20260502162037 75 61 2.0 5.0 0.00 0.00 0.00 29 1019.3
20260502161552 75 256 2.0 9.0 0.00 0.00 0.00 29 1019.4
20260502161035 75 43 2.0 9.0 0.00 0.00 0.00 29 1019.4
20260502160535 76 40 3.0 9.0 0.00 0.00 0.00 29 1019.5
20260502152035 77 98 0.0 6.0 0.00 0.00 0.00 26 1020.0
20260502151632 77 0 2.0 6.0 0.00 0.00 0.00 27 1020.0
20260502151038 76 0 1.0 8.0 0.00 0.00 0.00 27 1020.0
20260502150534 76 164 0.0 8.0 0.00 0.00 0.00 28 1020.1
20260502130537 74 34 1.0 6.0 0.00 0.00 0.00 30 1021.1
20260502123536 73 274 3.0 7.0 0.00 0.00 0.00 30 1021.5
20260502123051 75 0 2.0 7.0 0.00 0.00 0.00 30 1021.6
20260502122535 75 90 1.0 8.0 0.00 0.00 0.00 33 1021.6
20260502122034 72 350 2.0 8.0 0.00 0.00 0.00 33 1021.8
20260502121546 72 250 1.0 5.0 0.00 0.00 0.00 32 1021.8
20260502121035 73 184 2.0 8.0 0.00 0.00 0.00 31 1021.9
20260502120536 73 277 1.0 11.0 0.00 0.00 0.00 32 1022.0
20260502115538 73 73 3.0 10.0 0.00 0.00 0.00 30 1022.1
20260502115035 74 97 2.0 7.0 0.00 0.00 0.00 31 1022.3
20260502114554 74 65 1.0 5.0 0.00 0.00 0.00 28 1022.4
20260502114035 73 0 1.0 7.0 0.00 0.00 0.00 31 1022.4
20260502113535 73 345 1.0 9.0 0.00 0.00 0.00 33 1022.5
20260502113051 74 98 2.0 9.0 0.00 0.00 0.00 30 1022.5
20260502112534 73 139 3.0 10.0 0.00 0.00 0.00 30 1022.6
20260502112035 73 80 2.0 10.0 0.00 0.00 0.00 30 1022.7
20260502111548 73 46 2.0 10.0 0.00 0.00 0.00 30 1022.7
20260502111036 73 39 2.0 8.0 0.00 0.00 0.00 31 1022.7
20260502110537 73 92 2.0 9.0 0.00 0.00 0.00 33 1022.7
20260502110054 72 0 2.0 9.0 0.00 0.00 0.00 32 1022.8
20260502105534 73 114 2.0 9.0 0.00 0.00 0.00 31 1023.0
20260502105036 72 57 3.0 9.0 0.00 0.00 0.00 29 1023.0
20260502104551 73 150 4.0 9.0 0.00 0.00 0.00 28 1022.9
20260502104035 72 78 3.0 9.0 0.00 0.00 0.00 31 1023.1
20260502103535 71 202 3.0 9.0 0.00 0.00 0.00 29 1023.1
20260502103102 71 96 0.0 10.0 0.00 0.00 0.00 27 1023.2
20260502102538 71 19 4.0 11.0 0.00 0.00 0.00 27 1023.3
20260502102035 71 112 2.0 11.0 0.00 0.00 0.00 29 1023.3
20260502101559 71 161 2.0 9.0 0.00 0.00 0.00 30 1023.4
20260502101034 71 11 2.0 8.0 0.00 0.00 0.00 32 1023.5
20260502100534 71 115 3.0 8.0 0.00 0.00 0.00 33 1023.5
20260502100113 71 33 1.0 6.0 0.00 0.00 0.00 34 1023.6
20260502091036 69 360 1.0 7.0 0.00 0.00 0.00 36 1024.0
20260502090535 70 163 2.0 9.0 0.00 0.00 0.00 35 1024.0
20260502071038 62 254 2.0 6.0 0.00 0.00 0.00 49 1024.6
20260502070535 62 0 2.0 6.0 0.00 0.00 0.00 49 1024.6
20260502070051 61 0 2.0 8.0 0.00 0.00 0.00 49 1024.6
20260502065539 61 311 2.0 8.0 0.00 0.00 0.00 50 1024.6
20260502065038 61 329 0.0 4.0 0.00 0.00 0.00 51 1024.6
20260502064557 61 0 0.0 5.0 0.00 0.00 0.00 52 1024.6
20260502064038 60 340 1.0 5.0 0.00 0.00 0.00 53 1024.6
20260502063538 59 304 1.0 4.0 0.00 0.00 0.00 55 1024.7
20260502063046 58 313 2.0 4.0 0.00 0.00 0.00 56 1024.7
20260502062537 58 304 1.0 5.0 0.00 0.00 0.00 56 1024.7
20260502062034 57 313 2.0 5.0 0.00 0.00 0.00 57 1024.7
20260502061600 57 296 2.0 5.0 0.00 0.00 0.00 57 1024.6
20260502061035 57 298 1.0 4.0 0.00 0.00 0.00 58 1024.6
20260502060538 56 352 1.0 3.0 0.00 0.00 0.00 58 1024.7
20260502060050 56 0 0.0 4.0 0.00 0.00 0.00 59 1024.6
20260502055535 56 0 1.0 4.0 0.00 0.00 0.00 59 1024.5
20260502055035 56 301 1.0 4.0 0.00 0.00 0.00 59 1024.5
20260502054548 56 0 1.0 3.0 0.00 0.00 0.00 59 1024.5
20260502054034 56 0 0.0 3.0 0.00 0.00 0.00 59 1024.4
20260502053535 55 0 0.0 3.0 0.00 0.00 0.00 59 1024.5
20260502053052 55 315 1.0 3.0 0.00 0.00 0.00 60 1024.4
20260502052536 54 0 0.0 3.0 0.00 0.00 0.00 61 1024.5
20260502052036 54 0 0.0 3.0 0.00 0.00 0.00 62 1024.5
20260502051548 53 299 1.0 3.0 0.00 0.00 0.00 62 1024.5
20260502051035 53 305 1.0 3.0 0.00 0.00 0.00 63 1024.5
20260502050536 53 0 0.0 3.0 0.00 0.00 0.00 64 1024.5
20260502050051 52 281 1.0 3.0 0.00 0.00 0.00 64 1024.5
20260502045535 52 281 1.0 3.0 0.00 0.00 0.00 64 1024.5
20260502045035 51 279 0.0 1.0 0.00 0.00 0.00 65 1024.5
20260502044553 51 0 0.0 0.0 0.00 0.00 0.00 65 1024.5
20260502044035 51 0 0.0 2.0 0.00 0.00 0.00 66 1024.4
20260502043535 50 0 0.0 2.0 0.00 0.00 0.00 66 1024.4
20260502043059 50 279 0.0 2.0 0.00 0.00 0.00 67 1024.4
20260502042536 50 0 0.0 3.0 0.00 0.00 0.00 67 1024.4
20260502042035 50 279 1.0 3.0 0.00 0.00 0.00 68 1024.4
20260502041553 49 286 1.0 3.0 0.00 0.00 0.00 69 1024.4
20260502041035 49 0 0.0 0.0 0.00 0.00 0.00 69 1024.4
20260502040536 48 0 0.0 0.0 0.00 0.00 0.00 71 1024.4
20260502040054 48 0 0.0 0.0 0.00 0.00 0.00 71 1024.4
20260502035535 48 0 0.0 0.0 0.00 0.00 0.00 71 1024.3
20260502035037 47 0 0.0 0.0 0.00 0.00 0.00 71 1024.3
20260502034547 48 0 0.0 0.0 0.00 0.00 0.00 70 1024.3
20260502034036 48 0 0.0 0.0 0.00 0.00 0.00 69 1024.3
20260502033535 49 0 0.0 0.0 0.00 0.00 0.00 66 1024.3
20260502033048 50 0 0.0 2.0 0.00 0.00 0.00 67 1024.3
20260502032536 50 0 0.0 2.0 0.00 0.00 0.00 68 1024.2
20260502032035 49 0 0.0 1.0 0.00 0.00 0.00 68 1024.3
20260502031550 49 0 0.0 2.0 0.00 0.00 0.00 69 1024.2
20260502031038 49 0 0.0 2.0 0.00 0.00 0.00 69 1024.1
20260502030537 49 0 1.0 2.0 0.00 0.00 0.00 70 1024.2
20260502030050 49 306 0.0 2.0 0.00 0.00 0.00 69 1024.1
20260502025537 49 0 0.0 2.0 0.00 0.00 0.00 69 1024.1
20260502025039 49 0 0.0 2.0 0.00 0.00 0.00 69 1024.1
20260502024602 49 307 0.0 3.0 0.00 0.00 0.00 69 1024.1
20260502024036 49 0 0.0 3.0 0.00 0.00 0.00 69 1024.2
20260502023540 49 311 1.0 3.0 0.00 0.00 0.00 69 1024.2
20260502023051 49 320 1.0 3.0 0.00 0.00 0.00 69 1024.2
20260502022536 49 320 1.0 3.0 0.00 0.00 0.00 69 1024.2
20260502022036 49 321 1.0 3.0 0.00 0.00 0.00 69 1024.2
20260502021552 49 319 1.0 3.0 0.00 0.00 0.00 69 1024.2